TimeCDT,TemperatureF,Dew PointF,Humidity,Sea Level PressureIn,VisibilityMPH,Wind Direction,Wind SpeedMPH,Gust SpeedMPH,PrecipitationIn,Events,Conditions,WindDirDegrees,DateUTC
12:53 AM,73.9,69.1,85,29.90,10.0,NE,3.5,-,N/A,,Clear,40,2013-07-13 05:53:00
1:53 AM,73.9,70.0,87,29.88,10.0,Calm,Calm,-,N/A,,Clear,0,2013-07-13 06:53:00
2:53 AM,73.9,70.0,87,29.88,10.0,Calm,Calm,-,N/A,,Clear,0,2013-07-13 07:53:00
3:53 AM,73.0,70.0,90,29.88,8.0,Calm,Calm,-,N/A,,Clear,0,2013-07-13 08:53:00
4:53 AM,73.9,70.0,87,29.88,9.0,Calm,Calm,-,N/A,,Clear,0,2013-07-13 09:53:00
5:53 AM,73.0,70.0,90,29.88,7.0,Calm,Calm,-,N/A,,Clear,0,2013-07-13 10:53:00
6:53 AM,73.0,70.0,90,29.90,5.0,WNW,3.5,-,N/A,,Clear,290,2013-07-13 11:53:00
7:53 AM,77.0,71.1,82,29.92,7.0,North,4.6,-,N/A,,Clear,10,2013-07-13 12:53:00
8:53 AM,82.0,73.0,74,29.92,8.0,NNE,4.6,-,N/A,,Clear,30,2013-07-13 13:53:00
9:53 AM,84.0,73.9,72,29.91,8.0,Calm,Calm,-,N/A,,Clear,0,2013-07-13 14:53:00
10:53 AM,87.1,75.0,67,29.92,9.0,SE,10.4,-,N/A,,Clear,140,2013-07-13 15:53:00
11:53 AM,87.1,75.0,67,29.93,10.0,SSE,6.9,-,N/A,,Clear,160,2013-07-13 16:53:00
12:53 PM,87.1,73.9,65,29.91,10.0,South,5.8,-,N/A,,Clear,170,2013-07-13 17:53:00
1:53 PM,88.0,73.0,61,29.90,10.0,SSE,5.8,-,N/A,,Clear,160,2013-07-13 18:53:00
2:53 PM,84.0,73.9,72,29.89,8.0,Calm,Calm,-,N/A,,Mostly Cloudy,0,2013-07-13 19:53:00
3:53 PM,82.0,75.9,82,29.90,7.0,Calm,Calm,-,0.00,,Scattered Clouds,0,2013-07-13 20:53:00
4:53 PM,81.0,75.0,82,29.89,6.0,NNE,4.6,-,N/A,,Haze,20,2013-07-13 21:53:00
5:09 PM,80.6,73.4,79,29.90,7.0,ENE,13.8,19.6,N/A,Thunderstorm,Thunderstorm,60,2013-07-13 22:09:00
5:36 PM,73.4,68.0,83,29.91,2.0,NE,13.8,27.6,0.10,Rain-Thunderstorm,Light Thunderstorms and Rain,50,2013-07-13 22:36:00
5:45 PM,75.2,68.0,78,29.91,6.0,South,6.9,-,0.10,Rain-Thunderstorm,Light Thunderstorms and Rain,170,2013-07-13 22:45:00
5:53 PM,75.0,66.9,76,29.91,8.0,SSE,6.9,-,0.10,Rain-Thunderstorm,Light Thunderstorms and Rain,150,2013-07-13 22:53:00
6:36 PM,77.0,69.8,78,29.89,9.0,NNE,3.5,-,0.00,,Overcast,20,2013-07-13 23:36:00
6:53 PM,75.9,70.0,82,29.87,9.0,WNW,3.5,-,0.00,,Overcast,290,2013-07-13 23:53:00
7:53 PM,77.0,69.1,76,29.88,9.0,NNE,9.2,-,N/A,,Partly Cloudy,30,2013-07-14 00:53:00
8:17 PM,75.2,69.8,83,29.91,10.0,NE,15.0,21.9,N/A,,Mostly Cloudy,50,2013-07-14 01:17:00
8:45 PM,77.0,71.6,83,29.92,10.0,NE,5.8,-,N/A,,Scattered Clouds,50,2013-07-14 01:45:00
8:53 PM,78.1,71.1,79,29.92,10.0,NE,5.8,-,N/A,,Partly Cloudy,40,2013-07-14 01:53:00
9:12 PM,77.0,71.6,83,29.91,10.0,NE,8.1,-,N/A,Thunderstorm,Partly Cloudy,40,2013-07-14 02:12:00
9:37 PM,75.2,71.6,89,29.93,9.0,NE,3.5,-,N/A,,Clear,50,2013-07-14 02:37:00
9:53 PM,75.9,71.1,85,29.93,9.0,East,4.6,-,N/A,,Clear,90,2013-07-14 02:53:00
10:53 PM,75.9,72.0,87,29.95,9.0,Calm,Calm,-,N/A,,Clear,0,2013-07-14 03:53:00
11:53 PM,75.9,72.0,87,29.95,9.0,ENE,3.5,-,N/A,,Clear,60,2013-07-14 04:53:00